Regional Weather Roundup
Issued by NWS Wakefield, VA

Home | Current Version | Previous Version | Text Only | Print | Product List | Glossary On
Versions: 1 2 3 4 5 6 7 8 9 10 11 12 13 14 15 16 17 18 19 20 21 22 23 24 25 26 27 28 29 30 31 32 33 34 35 36 37 38 39 40 41 42 43 44 45 46 47 48 49 50
000
ASUS41 KAKQ 271215
RWRAKQ

REGIONAL WEATHER ROUNDUP
NATIONAL WEATHER SERVICE WAKEFIELD VA
800 AM EDT FRI MAY 27 2016

Note: "fair" indicates few or no clouds below 12,000 feet with no
significant weather and/or obstructions to visibility. * = Denotes
station may not report precipitation (e.g., rain,snow,etc.),
thunder or fog.

VAZ042-051-052>054-056-271300-
NORTHERN VIRGINIA

CITY           SKY/WX    TMP DP  RH WIND       PRES   REMARKS
WASH NATIONAL  FAIR      73  66  78 S8        30.09S
DULLES         FAIR      73  65  75 S6        30.09S
FORT BELVOIR   FAIR      73  66  77 S2        30.09S
QUANTICO       FAIR      72  66  81 S5        30.10R
FREDERICKSBRG* NOT AVBL
STAFFORD*      FAIR      72  65  80 SW5       30.13S
WARRENTON      FAIR      72  62  71 S3        30.09S
CULPEPER*      FAIR      71  67  87 CALM      30.10S
MANASSAS*      SUNNY     72  70  94 CALM      30.09S
LEESBURG*      FAIR      72  70  94 CALM      30.10R
WINCHESTER     FAIR      70  64  83 CALM      30.10R
FRONT ROYAL*   FAIR      72  64  78 S5        30.09S
LURAY*         FAIR      68  66  94 CALM      30.11S
$$

VAZ048-049-060>072-079>083-271300-
CENTRAL AND SOUTH CENTRAL VIRGINIA

CITY           SKY/WX    TMP DP  RH WIND       PRES   REMARKS
RICHMOND       FAIR      71  62  73 SW9       30.11S
CHESTERFIELD*  FAIR      72  55  56 SW5       30.13R
PETERSBURG*    FAIR      72  63  73 S7        30.12S
HANOVER        FAIR      73  63  70 SW7       30.13R
TAPPAHANNOCK*  FAIR      73  63  70 S7        30.11S
QUINTON*       FAIR      71  63  75 SW3       30.11S
CHARLOTTSVILLE FAIR      72  64  76 CALM      30.10S
GORDONSVILLE*  FAIR      71  66  84 SW3       30.09F
ORANGE*        FAIR      72  68  88 CALM      30.11S
LOUISA*        FAIR      73  68  83 CALM      30.09S
BUMPASS*       FAIR      71  65  82 SW5       30.10S
FARMVILLE*     FAIR      71  66  84 S7        30.11S
CREWE*         FAIR      71  65  82 CALM      30.12R
FORT PICKETT*  NOT AVBL
CHASE CITY*    FAIR      70  62  76 CALM      30.13S
CLARKSVILLE*   FAIR      68  63  83 S6        30.13R
SOUTH HILL*    FAIR      68  63  83 S7        30.19R
LAWRENCEVILLE* FAIR      70  64  80 SW6       30.12F
EMPORIA*       FAIR      68  63  83 SE5       30.15S
$$

VAZ088>098-271300-
SOUTHEAST VIRGINIA

CITY           SKY/WX    TMP DP  RH WIND       PRES   REMARKS
NORFOLK        FAIR      74  62  66 SW14      30.13F
VIRGINIA BEACH FAIR      76  63  64 SW13      30.14S
NORFOLK NAVAL  FAIR      74  63  68 SW10      30.15S
WEST POINT*    FAIR      73  61  67 S3        30.13S
SALUDA*        FAIR      73  64  73 SW5       30.11S
NEWPORT NEWS   FAIR      73  64  73 SW13      30.13F
LANGLEY AFB    FAIR      73  64  75 S13       30.12F
FORT EUSTIS    FAIR      73  64  73 S8        30.11S
WILLIAMSBURG*  FAIR      73  64  73 S6        30.13S
HR EXEC AP*    FAIR      72  63  73 SW7       30.17S
FRANKLIN*      FAIR      70  64  79 S8        30.15S
US460-WAKEFLD  FAIR      72  64  76 S6        30.12F
$$

VAZ020-022-025-037-045-271300-
WEST CENTRAL AND SOUTHWEST VIRGINIA

CITY           SKY/WX    TMP DP  RH WIND       PRES   REMARKS
STAUNTON*      FAIR      65  63  90 CALM      30.13F
WAYNESBORO*    FAIR      66  62  86 CALM      30.13F
HOT SPRINGS VA PTSUNNY   66  58  75 W7        30.21F
LYNCHBURG      FAIR      68  65  90 S6        30.14S
DANVILLE       FAIR      68  61  78 SW6       30.14R
SOUTH BOSTON*  FAIR      70  63  79 SW6       30.13S
MARTINSVILLE   FAIR      65  64  96 CALM      30.17S
ROANOKE        FAIR      68  63  84 CALM      30.15S
BLACKSBURG     PTSUNNY   65  63  94 SW3       30.20F
DUBLIN*        FAIR      65  65 100 CALM      30.19R
MARION*        FAIR      61  60  96 CALM      30.22S
HILLSVILLE*    FAIR      64  62  95 S5        30.19S
RICHLANDS*     FAIR      65  56  74 CALM      30.18F
WISE*          FAIR      66  61  82 CALM      30.19S
ABINGDON*      FAIR      66  63  90 CALM      30.17R
$$

MDZ021>025-VAZ099-100-271300-
SOUTHERN MARYLAND AND THE DELMARVA PENINSULA

CITY           SKY/WX    TMP DP  RH WIND       PRES   REMARKS
PATUXENT RIVER MOSUNNY   73  63  70 SW12      30.08S
BAY BRIDGE APT SUNNY     73  66  78 SW7       30.08S
LEONARDTOWN    SUNNY     72  63  73 SW8       30.11S
DOVER          SUNNY     73  70  89 SW10      30.08R
GEORGETOWN     SUNNY     73  64  73 SW10      30.11R
EASTON         SUNNY     75  70  83 SW9       30.12S
CAMBRIDGE      SUNNY     72  64  78 S5        30.09S
SALISBURY      SUNNY     72  63  73 SW10      30.11R
OCEAN CITY     SUNNY     69  64  84 S5        30.11R
WALLOPS ISLAND FAIR      72  64  76 SW6       30.12S
ACCOMACK*      FAIR      73  59  60 SW8       30.12S
$$

NCZ012>017-030>032-271300-
NORTH CENTRAL AND EASTERN NORTH CAROLINA

CITY           SKY/WX    TMP DP  RH WIND       PRES   REMARKS
ROANOKE RAPIDS FAIR      70  64  83 S5        30.14S
RALEIGH        MOSUNNY   71  62  73 SW10      30.16R
ELIZABETH CITY SUNNY     72  65  78 S6        30.17S
AHOSKIE*       SUNNY     69  64  82 S3        30.16S
EDENTON*       SUNNY    N/A N/A N/A S5        30.18R
CURRITUCK*     SUNNY     71  64  77 S3        30.17S
KILL DEVIL HLS SUNNY     73  66  79 CALM      30.17S
MANTEO         NOT AVBL
CAPE HATTERAS  SUNNY     74  61  63 S3        30.19S
TARBORO*       FAIR      71  65  82 CALM      30.16S
GOLDSBORO      SUNNY     70  70 100 S3        30.15R
WASHINGTON     SUNNY     71  65  82 S3        30.16F
GREENVILLE     SUNNY     72  66  83 CALM      30.17S
NEW BERN       SUNNY     71  65  81 CALM      30.19R
WILMINGTON     SUNNY     70  65  84 E3        30.16S
$$

VAZ048-271300-
ELSEWHERE

CITY           SKY/WX    TMP DP  RH WIND       PRES   REMARKS
HARRISBURG PA  SUNNY     73  66  78 CALM      30.06S HAZE
BALTIMORE      MOSUNNY   74  65  73 SW8       30.07F
ANNAPOLIS      SUNNY     73  66  78 S6        30.07S
ANDREWS AFB    FAIR      74  65  74 SW8       30.08S
PHILADELPHIA   MOSUNNY   73  64  73 SW9       30.08R
HENDERSON NC   SUNNY     67  60  76 SW8       30.14S
GREENSBORO     MOSUNNY   70  59  68 SW10      30.14R
ROCKY MOUNT    SUNNY     71  66  84 S5        30.15S
$$

VAZ100-271300-
MARINE

STATION/POSITION TIME  TEMP    WIND        PRES    WAVE   SWELL
                       AIR SEA DIR/SP/G            HT/PER HT/PER
                 (UTC) (F)     (DEG/KT/KT) (MB)    (FT/S) (FT/S)
BRANDYWINE LGT   1100   68     210/ 13/ 14 1018.7R
CAPE MAY NJ      1100   66 66  170/  7/  9 1018.6F
LEWES DE         1100   72 60  220/  8/ 13 1018.7S
15NM E FENWICK I 1150   63 60              1019.7S   3/ 5
OCEAN-CITY-INLET 1100   62 61  200/  9/ 11 1019.6F
WACHAPREAGUE VA  1100   73 75  220/  8/ 10 1019.7F
THOMAS POINT MD  1200   69 65  190/  7/  8 1019.9R
GOOSES REEF MD   1100   71 65  200/ 10/ 12 1019.5R   1/ 3
COVE POINT MD    1100   71     250/ 15/ 18 1018.9F
SOLOMONS ISLAND  1100   71 66  220/ 13/ 16   N/A
BISHOPS HEAD MD  1100   72 71  210/ 11/ 15 1019.1R
PINEY POINT MD   1112          230/  4/  6   N/A
POTOMAC MD       1100   70 69  240/ 12/ 14 1018.0R   2/ 2
CAMBRIDGE MD     1100   72 66  200/  5/ 10 1017.9R
LEWISETTA VA     1100   71 67  240/ 11/ 13 1018.6R
RAPPAHANNOCK LGT 1100          180/ 14/ 16 1020.4S
STINGRAY PT      1100   71 67  230/ 10/ 12 1019.9S   1/ 2
YORK RVR RNG VA  1100   72     230/ 12/ 13 1019.4R
YORKTOWN VA      1100   71 68  210/ 12/ 16 1019.4F
JAMESTOWN VA     1100   71 71  150/  4/  8   N/A     0
DOMINION TERM VA 1100   70     200/  7/  9 1020.6R
KIPTOPEKE VA     1112      68  170/  7/  8   N/A
CHES BAY BRIDGE  1100   71 68  200/ 13/ 15 1020.4R
CAPE HENRY VA    1100   71     210/  8/ 13   N/A
WILLOUBY STN VA  1100   71     210/ 15/ 17 1021.3F
CAPE HENRY BUOY  1112      66                N/A     2/ 8
1ST LANDING BUOY 1100   70 66  210/ 12/ 14 1020.6R   1/ 2
CAPE CHARLES BUO 1126      66                N/A     2/ 8
OFFSHORE WE BUOY 1121      65                N/A     2/ 7
64NM E OF VA BCH 1150   63 59  180/  8/  8 1021.8F   2/ 8   2/ 8
DUCK PIER NC     1100   71 60  210/  7/  8 1021.1R
44100 DUCK FRF   1124      65                N/A     2/ 8
44056 DUCK FRF   1111      62                N/A     1/ 7
OREGON INLET NC  1100   73 76   CALM  /  1 1022.2R
HATTERAS NC      1100   73 72  280/  2/  3 1021.8R
DIAMOND SHLS NC  1150   78 82  170/  2/  4 1022.0S   2/ 8   2/ 8
CAPE LOOKOUT NC  1100   73      90/  1/  2 1021.3R
$$



USA.gov is the U.S. government's official web portal to all federal, state and local government web resources and services.